Location: Newark
(44.2003°N, 3.2583°E)
Time: 03:12:41
(UTC+00:00)

FALCON 9 DEB - Pass Details

Date: 25 September 2020
Orbit: 148 x 164 km, 53.0° (Epoch: 28 September)

Event Time Altitude Azimuth Distance (km) Brightness Sun altitude
Exits shadow 03:07:35 - 56° (NE) 1,571 ? -26.8°
Enters shadow 04:00:12 -72° 276° (W) 12,347 ? -18.1°
Maximum altitude 04:37:22 16° 23° (NNE) 579 ? -11.6°
